TimeEST,TemperatureF,Dew PointF,Humidity,Sea Level PressureIn,VisibilityMPH,Wind Direction,Wind SpeedMPH,Gust SpeedMPH,PrecipitationIn,Events,Conditions,WindDirDegrees,DateUTC
12:52 AM,-8.0,-14.1,75,30.17,10.0,Calm,Calm,-,N/A,,Clear,0,2014-01-29 05:52:00
1:52 AM,-8.0,-14.1,75,30.18,10.0,North,4.6,-,N/A,,Clear,10,2014-01-29 06:52:00
2:52 AM,-9.0,-14.1,79,30.14,10.0,Calm,Calm,-,N/A,,Clear,0,2014-01-29 07:52:00
3:52 AM,-6.0,-11.0,79,30.11,10.0,Calm,Calm,-,N/A,,Clear,0,2014-01-29 08:52:00
4:52 AM,-5.1,-11.0,76,30.10,10.0,Calm,Calm,-,N/A,,Clear,0,2014-01-29 09:52:00
5:52 AM,-8.0,-13.0,79,30.09,10.0,Variable,3.5,-,N/A,,Clear,0,2014-01-29 10:52:00
6:52 AM,-13.0,-20.0,71,30.08,10.0,Calm,Calm,-,N/A,,Clear,0,2014-01-29 11:52:00
7:52 AM,-11.0,-17.0,75,30.08,10.0,Calm,Calm,-,N/A,,Clear,0,2014-01-29 12:52:00
8:52 AM,-6.0,-11.9,75,30.07,10.0,Calm,Calm,-,N/A,,Clear,0,2014-01-29 13:52:00
9:52 AM,3.9,-8.0,58,30.05,10.0,Calm,Calm,-,N/A,,Clear,0,2014-01-29 14:52:00
10:52 AM,12.0,-11.9,34,30.00,10.0,North,4.6,-,N/A,,Clear,350,2014-01-29 15:52:00
11:52 AM,16.0,-11.9,28,29.94,10.0,West,8.1,16.1,N/A,,Clear,260,2014-01-29 16:52:00
12:52 PM,18.0,-11.0,27,29.89,10.0,WSW,9.2,-,N/A,,Clear,240,2014-01-29 17:52:00
1:52 PM,19.0,-9.9,27,29.88,10.0,Variable,5.8,-,N/A,,Clear,0,2014-01-29 18:52:00
2:52 PM,19.0,-11.0,26,29.87,10.0,WNW,6.9,-,N/A,,Clear,290,2014-01-29 19:52:00
3:52 PM,18.0,-9.9,29,29.88,10.0,WNW,6.9,-,N/A,,Partly Cloudy,290,2014-01-29 20:52:00
4:52 PM,15.1,-9.0,34,29.90,10.0,WSW,3.5,-,N/A,,Partly Cloudy,240,2014-01-29 21:52:00
5:52 PM,15.1,-8.0,36,29.96,10.0,Variable,5.8,-,N/A,,Scattered Clouds,0,2014-01-29 22:52:00
6:52 PM,12.9,-7.1,41,29.99,10.0,West,6.9,-,N/A,,Clear,260,2014-01-29 23:52:00
7:52 PM,12.9,-4.0,47,30.00,10.0,Variable,4.6,16.1,N/A,,Overcast,0,2014-01-30 00:52:00
8:52 PM,12.0,-6.0,44,30.01,10.0,North,-9999.0,-,N/A,,Clear,0,2014-01-30 01:52:00
9:52 PM,10.9,-6.0,47,30.05,10.0,Variable,4.6,-,N/A,,Mostly Cloudy,0,2014-01-30 02:52:00
10:52 PM,10.0,-5.1,51,30.07,10.0,WSW,4.6,-,N/A,,Partly Cloudy,240,2014-01-30 03:52:00
11:52 PM,10.9,-2.9,54,30.10,10.0,Calm,Calm,-,N/A,,Overcast,0,2014-01-30 04:52:00